When you browse on this site, cookies collect data to enhance your experience and personalize the content and advertising you see.
Visit our Privacy Policy to learn more. By continuing to use the site, you agree to this use of cookies and data.
  • In Lithuania
  • List of Countries
  • For 7 days
  • Water Temperature
  • Weather Map
  • Weather Widgets
  • user-avatar
    Login

    Hourly Weather Ali Bayramli

    Today, 16 September, Monday

    Time Temperature Precipitation Wind Pressure Humidity
    00:00 +20°C° 0 mm 0 mps 762 mmHg 74%
    01:00 +22°C° 0.1 mm 1 mps 762 mmHg 74%
    02:00 +22°C° 0.1 mm 1 mps 762 mmHg 74%
    03:00 +22°C° 0 mm 1 mps 762 mmHg 80%
    04:00 +22°C° 0.5 mm 1 mps 762 mmHg 81%
    05:00 +22°C° 0.5 mm 1 mps 763 mmHg 83%
    06:00 +22°C° 0.5 mm 1 mps 763 mmHg 84%
    07:00 +23°C° 0.4 mm 1 mps 763 mmHg 77%
    08:00 +24°C° 0.4 mm 2 mps 763 mmHg 70%
    09:00 +26°C° 0 mm 2 mps 763 mmHg 64%
    10:00 +27°C° 0.1 mm 2 mps 762 mmHg 60%
    11:00 +28°C° 0.1 mm 3 mps 762 mmHg 55%
    12:00 +29°C° 0.1 mm 4 mps 761 mmHg 51%
    13:00 +29°C° 0 mm 5 mps 760 mmHg 50%
    14:00 +29°C° 0 mm 5 mps 760 mmHg 50%
    15:00 +29°C° 0 mm 5 mps 759 mmHg 49%
    16:00 +27°C° 0 mm 5 mps 758 mmHg 53%
    17:00 +26°C° 0 mm 5 mps 758 mmHg 56%
    18:00 +25°C° 0 mm 4 mps 758 mmHg 59%
    19:00 +25°C° 0 mm 3 mps 758 mmHg 62%
    20:00 +24°C° 0 mm 2 mps 758 mmHg 65%
    21:00 +23°C° 0 mm 1 mps 758 mmHg 68%
    22:00 +23°C° 0 mm 1 mps 757 mmHg 71%
    23:00 +22°C° 0 mm 1 mps 757 mmHg 73%

    Tomorrow, 17 September, Tuesday

    Time Temperature Precipitation Wind Pressure Humidity
    00:00 +22°C° 0 mm 1 mps 756 mmHg 76%
    01:00 +22°C° 0 mm 1 mps 756 mmHg 78%
    02:00 +21°C° 0 mm 1 mps 756 mmHg 80%
    03:00 +21°C° 0 mm 1 mps 756 mmHg 81%
    04:00 +21°C° 0 mm 1 mps 756 mmHg 82%
    05:00 +21°C° 0 mm 1 mps 756 mmHg 83%
    06:00 +21°C° 0 mm 1 mps 756 mmHg 84%
    07:00 +23°C° 0 mm 2 mps 756 mmHg 75%
    08:00 +25°C° 0 mm 2 mps 756 mmHg 66%
    09:00 +27°C° 0 mm 3 mps 756 mmHg 58%
    10:00 +29°C° 0 mm 3 mps 756 mmHg 51%
    11:00 +31°C° 0 mm 3 mps 755 mmHg 45%
    12:00 +33°C° 0 mm 3 mps 755 mmHg 38%
    13:00 +34°C° 0 mm 2 mps 754 mmHg 36%
    14:00 +35°C° 0 mm 2 mps 754 mmHg 34%
    15:00 +35°C° 0 mm 1 mps 753 mmHg 31%
    16:00 +33°C° 0 mm 3 mps 753 mmHg 41%
    17:00 +30°C° 0 mm 5 mps 753 mmHg 50%
    18:00 +27°C° 0 mm 7 mps 753 mmHg 60%
    19:00 +27°C° 0 mm 6 mps 754 mmHg 60%
    20:00 +26°C° 0 mm 6 mps 754 mmHg 61%
    21:00 +24°C° 0 mm 6 mps 755 mmHg 61%
    22:00 +25°C° 0 mm 5 mps 755 mmHg 62%
    23:00 +25°C° 0 mm 4 mps 755 mmHg 63%

    Day after tomorrow, 18 September, Wednesday

    Time Temperature Precipitation Wind Pressure Humidity
    00:00 +24°C° 0 mm 2 mps 756 mmHg 64%
    01:00 +24°C° 0 mm 3 mps 756 mmHg 67%
    02:00 +22°C° 0 mm 3 mps 756 mmHg 69%
    03:00 +22°C° 0 mm 3 mps 756 mmHg 71%
    04:00 +23°C° 0 mm 2 mps 757 mmHg 72%
    05:00 +23°C° 0 mm 1 mps 757 mmHg 74%
    06:00 +21°C° 0 mm 0 mps 758 mmHg 75%
    07:00 +24°C° 0 mm 1 mps 758 mmHg 68%
    08:00 +26°C° 0 mm 1 mps 759 mmHg 61%
    09:00 +27°C° 0 mm 2 mps 759 mmHg 54%
    10:00 +29°C° 0 mm 2 mps 759 mmHg 49%
    11:00 +30°C° 0 mm 2 mps 759 mmHg 45%
    12:00 +31°C° 0 mm 3 mps 759 mmHg 41%
    13:00 +32°C° 0 mm 4 mps 759 mmHg 42%
    14:00 +32°C° 0 mm 5 mps 758 mmHg 44%
    15:00 +30°C° 0 mm 7 mps 758 mmHg 46%
    16:00 +29°C° 0 mm 7 mps 758 mmHg 53%
    17:00 +27°C° 0 mm 6 mps 758 mmHg 59%
    18:00 +26°C° 0 mm 6 mps 758 mmHg 66%
    19:00 +24°C° 0 mm 6 mps 758 mmHg 67%
    20:00 +25°C° 0 mm 5 mps 759 mmHg 69%
    21:00 +23°C° 0 mm 4 mps 759 mmHg 71%
    22:00 +24°C° 0 mm 3 mps 758 mmHg 73%
    23:00 +24°C° 0 mm 3 mps 758 mmHg 74%

    19 September, Thursday

    Time Temperature Precipitation Wind Pressure Humidity
    00:00 +23°C° 0 mm 2 mps 757 mmHg 76%
    01:00 +23°C° 0 mm 1 mps 757 mmHg 77%
    02:00 +22°C° 0 mm 1 mps 757 mmHg 79%
    03:00 +22°C° 0 mm 1 mps 757 mmHg 80%
    04:00 +22°C° 0 mm 1 mps 757 mmHg 80%
    05:00 +22°C° 0 mm 1 mps 757 mmHg 79%
    06:00 +21°C° 0 mm 2 mps 757 mmHg 79%
    07:00 +24°C° 0 mm 2 mps 757 mmHg 70%
    08:00 +26°C° 0 mm 2 mps 757 mmHg 60%
    09:00 +28°C° 0 mm 3 mps 758 mmHg 51%
    10:00 +30°C° 0 mm 3 mps 758 mmHg 43%
    11:00 +33°C° 0 mm 3 mps 758 mmHg 35%
    12:00 +35°C° 0 mm 3 mps 758 mmHg 27%
    13:00 +34°C° 0 mm 4 mps 758 mmHg 29%
    14:00 +34°C° 0 mm 5 mps 758 mmHg 31%
    15:00 +33°C° 0 mm 6 mps 758 mmHg 34%
    16:00 +30°C° 0 mm 7 mps 759 mmHg 40%
    17:00 +28°C° 0 mm 9 mps 759 mmHg 47%
    18:00 +27°C° 0 mm 10 mps 759 mmHg 53%
    19:00 +26°C° 0 mm 9 mps 760 mmHg 55%
    20:00 +24°C° 0 mm 8 mps 760 mmHg 57%
    21:00 +23°C° 0 mm 8 mps 761 mmHg 59%
    22:00 +23°C° 0 mm 7 mps 760 mmHg 59%
    23:00 +22°C° 0 mm 6 mps 760 mmHg 59%

    20 September, Friday

    Time Temperature Precipitation Wind Pressure Humidity
    00:00 +22°C° 0 mm 5 mps 760 mmHg 59%
    01:00 +22°C° 0 mm 4 mps 760 mmHg 60%
    02:00 +21°C° 0 mm 4 mps 760 mmHg 60%
    03:00 +21°C° 0 mm 3 mps 760 mmHg 61%
    04:00 +20°C° 0 mm 3 mps 760 mmHg 63%
    05:00 +20°C° 0 mm 2 mps 759 mmHg 65%
    06:00 +20°C° 0 mm 2 mps 759 mmHg 67%
    07:00 +21°C° 0 mm 2 mps 759 mmHg 61%
    08:00 +24°C° 0 mm 2 mps 759 mmHg 55%
    09:00 +25°C° 0 mm 1 mps 759 mmHg 49%
    10:00 +26°C° 0 mm 1 mps 758 mmHg 45%
    11:00 +28°C° 0 mm 1 mps 758 mmHg 41%
    12:00 +29°C° 0 mm 1 mps 757 mmHg 38%
    13:00 +29°C° 0 mm 2 mps 756 mmHg 37%
    14:00 +30°C° 0 mm 2 mps 756 mmHg 37%
    15:00 +30°C° 0 mm 2 mps 755 mmHg 36%
    16:00 +28°C° 0 mm 3 mps 755 mmHg 43%
    17:00 +27°C° 0 mm 4 mps 755 mmHg 49%
    18:00 +25°C° 0 mm 5 mps 754 mmHg 56%
    19:00 +23°C° 0 mm 4 mps 755 mmHg 61%
    20:00 +22°C° 0 mm 3 mps 755 mmHg 67%
    21:00 +23°C° 0 mm 2 mps 755 mmHg 72%
    22:00 +21°C° 0 mm 2 mps 755 mmHg 73%
    23:00 +21°C° 0 mm 2 mps 755 mmHg 74%

    21 September, Saturday

    Time Temperature Precipitation Wind Pressure Humidity
    00:00 +21°C° 0 mm 2 mps 754 mmHg 75%
    01:00 +21°C° 0 mm 2 mps 754 mmHg 75%
    02:00 +21°C° 0 mm 1 mps 754 mmHg 76%
    03:00 +21°C° 0 mm 1 mps 754 mmHg 76%
    04:00 +21°C° 0 mm 1 mps 754 mmHg 77%
    05:00 +21°C° 0 mm 1 mps 754 mmHg 78%
    06:00 +20°C° 0 mm 2 mps 754 mmHg 78%
    07:00 +21°C° 0 mm 2 mps 754 mmHg 71%
    08:00 +24°C° 0 mm 2 mps 754 mmHg 64%
    09:00 +25°C° 0 mm 2 mps 755 mmHg 57%
    10:00 +26°C° 0 mm 3 mps 754 mmHg 52%
    11:00 +27°C° 0 mm 3 mps 754 mmHg 46%
    12:00 +29°C° 0 mm 4 mps 754 mmHg 41%
    13:00 +28°C° 0 mm 6 mps 753 mmHg 41%
    14:00 +28°C° 0 mm 7 mps 753 mmHg 42%
    15:00 +28°C° 0 mm 9 mps 753 mmHg 42%
    16:00 +26°C° 0 mm 9 mps 753 mmHg 46%
    17:00 +24°C° 0 mm 9 mps 753 mmHg 51%
    18:00 +22°C° 0 mm 8 mps 754 mmHg 55%
    19:00 +22°C° 0 mm 8 mps 754 mmHg 57%
    20:00 +22°C° 0 mm 7 mps 755 mmHg 59%
    21:00 +21°C° 0 mm 6 mps 756 mmHg 61%
    22:00 +21°C° 0 mm 6 mps 756 mmHg 60%
    23:00 +21°C° 0 mm 6 mps 757 mmHg 59%
    Show more